Regional Weather Roundup
Issued by NWS Jackson, KY

Home | Current Version | Previous Version | Graphics & Text | Print | Product List | Glossary On
Versions: 1 2 3 4 5 6 7 8 9 10 11 12 13 14 15 16 17 18 19 20 21 22 23 24 25 26 27 28 29 30 31 32 33 34 35 36 37 38 39 40 41 42 43 44 45 46 47 48 49 50
346
ASUS43 KJKL 200610
RWRJKL

EAST KENTUCKY HOURLY WEATHER ROUNDUP
NATIONAL WEATHER SERVICE JACKSON KY
200 AM EDT FRI OCT 20 2017

NOTE: "FAIR" INDICATES FEW OR NO CLOUDS BELOW 12,000 FEET WITH
NO SIGNIFICANT WEATHER AND/OR OBSTRUCTIONS TO VISIBILITY.

* THESE REPORTS ARE NOT UNDER NWS QUALITY CONTROL AND MAY NOT
  REPORT WEATHER SUCH AS PRECIPITATION AND FOG.

KYZ079-080-083-085-087-088-110-112-115-119-120-200700
...EASTERN KENTUCKY...

CITY           SKY/WX    TMP DP  RH WIND       PRES   REMARKS
JACKSON          N/A     55  47  74 CALM      30.28R
6HR MIN TEMP:  53; 6HR MAX TEMP:  63;

LONDON           N/A     46  44  93 CALM      30.28S
6HR MIN TEMP:  46; 6HR MAX TEMP:  58;

SOMERSET*        N/A     45  45 100 CALM      30.29S
MONTICELLO*      N/A     43  42  97 W3        30.30R
6HR MIN TEMP:  42; 6HR MAX TEMP:  53;

WILLIAMSBURG*    N/A     46  46 100 CALM      30.29S
MIDDLESBORO*     N/A     45  45 100 CALM      30.32R
6HR MIN TEMP:  45; 6HR MAX TEMP:  58;

HARLAN APT*      N/A     45  45 100 CALM      30.31S
PIKE CO APT*     N/A     54  47  76 S5        30.28S
BIG SANDY APT*   N/A     53  48  84 CALM      30.28S
6HR MIN TEMP:  53; 6HR MAX TEMP:  61;

MOREHEAD APT*    N/A     50  48  93 CALM      30.28S
$$

KYZ035-036-041-042-044-050-067-078-099-200700
...CENTRAL KENTUCKY...

CITY           SKY/WX    TMP DP  RH WIND       PRES   REMARKS
MT STERLING*     N/A     46  45  93 SW5       30.28S
FLEMING/MASON*   N/A     53  47  82 SW5       30.26S
DANVILLE*        N/A     46  45  93 CALM      30.28R
LEXINGTON        N/A     50  45  83 S6        30.26S
6HR MIN TEMP:  50; 6HR MAX TEMP:  63;

FRANKFORT        N/A     48  45  89 CALM      30.25S
6HR MIN TEMP:  48; 6HR MAX TEMP:  58;

LOUISVILLE       N/A     56  52  86 SE5       30.24R
6HR MIN TEMP:  55; 6HR MAX TEMP:  68;

LEBANON*         N/A     54  46  76 CALM      30.26S
GLASGOW*         N/A     47  47 100 CALM      30.26R
BOWLING GREEN  FOG       49  49 100 CALM      30.25S VSB 3/4
6HR MIN TEMP:  49; 6HR MAX TEMP:  63;

$$

KYZ091>093-OHZ055-061-077-WVZ005-015-034-035-042-200700
...SOUTHERN OHIO/WEST VIRGINIA...

CITY           SKY/WX    TMP DP  RH WIND       PRES   REMARKS
COVINGTON        N/A     56  52  86 CALM      30.23S
COLUMBUS         N/A     52  50  93 SE3       30.22R
DAYTON           N/A     55  51  86 W3        30.24R
WILMINGTON       N/A     53  51  93 SW3       30.24R
HUNTINGTON       N/A     50  47  89 CALM      30.25S
CHARLESTON       N/A     48  45  89 CALM      30.26S
PINEVILLE*       N/A     43  41  93 MISG      30.35R
BECKLEY          N/A     48  40  73 CALM      30.30R
BLUEFIELD        N/A     51  38  60 W7        30.31S
LOGAN CO APT*    N/A     52  46  82 CALM      30.28S
$$

VAZ002-007-008-TNZ017-027-036-066-071-200700
...SOUTHWEST VIRGINIA/EAST TENNESSEE...

CITY           SKY/WX    TMP DP  RH WIND       PRES   REMARKS
WISE*            N/A     52  43  71 CALM      30.33S
JONESVILLE*      N/A     43  41  93 CALM      30.32F
ABINGDON*        N/A     47  42  85 CALM      30.31S
BRISTOL          N/A     43  43 100 CALM      30.30S
MORRISTOWN*    CLEAR     48  45  87 CALM      30.28S
SEVIERVILLE*   CLEAR     45  45 100 CALM      30.28R
KNOXVILLE        N/A     48  48 100 CALM      30.27R
LAFOLLETTE*    PTCLDY    45  45 100 CALM      30.33S FOG
OAK RIDGE      LGT RAIN  48  48 100 CALM      30.29S
CROSSVILLE       N/A     45  43  93 CALM      30.28F
NASHVILLE        N/A     51  47  86 CALM      30.25R
$$

...KEY TO REMARKS...
VSB - VISIBILITY IN MILES
WCI - WIND CHILL INDEX
HX  - HEAT INDEX

$$




USA.gov is the U.S. government's official web portal to all federal, state and local government web resources and services.